Location: Huntsville
(34.7300°N, 86.5860°W)
Time: 13:04:03
(UTC-05:00)

BlueWalker 3 - Visible Passes

Search period start: 01 October 2023 00:00
Search period end: 11 October 2023 00:00
Orbit: 491 x 508 km, 53.2° (Epoch: 01 October)

Date Brightness Start Highest point End Pass type
(mag) Time Alt. Az. Time Alt. Az. Time Alt. Az.
01 Oct 4.9 04:33:01 10° N 04:34:17 11° NNE 04:35:31 10° NE visible
01 Oct 2.4 06:09:33 10° NW 06:13:22 62° NE 06:17:12 10° SE visible
02 Oct 4.9 04:12:25 11° NNE 04:12:40 11° NNE 04:13:55 10° NE visible
02 Oct 2.4 05:47:55 10° NW 05:51:45 63° NE 05:55:35 10° SE visible
03 Oct 2.3 05:27:01 15° NW 05:30:07 63° NE 05:33:57 10° SE visible
04 Oct 2.2 05:07:06 36° NNW 05:08:28 64° NE 05:12:18 10° SE visible
05 Oct 2.5 04:47:21 56° E 04:47:21 56° E 04:50:39 10° SE visible
05 Oct 4.4 20:04:29 10° S 20:04:48 12° S 20:04:48 12° S visible
06 Oct 4.3 04:27:45 19° ESE 04:27:45 19° ESE 04:28:58 10° SE visible
06 Oct 3.9 06:02:27 11° WSW 06:03:07 12° WSW 06:04:29 10° SW visible
06 Oct 3.2 19:42:48 10° S 19:45:10 25° SSE 19:45:10 25° SSE visible
07 Oct 2.9 19:21:06 10° S 19:24:22 28° SE 19:25:22 24° E visible
07 Oct 4.9 20:59:23 10° W 21:00:03 14° W 21:00:03 14° W visible
08 Oct 2.9 18:59:22 10° S 19:02:38 28° SE 19:05:23 13° ENE visible
08 Oct 4.1 20:37:41 10° W 20:40:03 25° WNW 20:40:03 25° WNW visible
09 Oct 2.9 18:37:38 10° S 18:40:54 28° SE 18:44:11 10° ENE visible
09 Oct 3.6 20:15:58 10° W 20:19:16 28° NW 20:19:51 27° NNW visible
10 Oct 3.7 19:54:13 10° W 19:57:32 28° NW 19:59:28 18° N visible
